Lid_Strength_Index
12 12 12 13 12 12 12 12 12 12 12 12 12 11 11 11 10 9 8 8 9 8 8 7 7 7 7 6 6 6 6 6 8 7 5 3 3 1 1 0 2 1 1
13 13 13 13 13 13 13 13 13 13 12 12 12 12 12 11 10 11 11 10 11 10 10 9 9 8 8 7 7 8 8 8 9 9 7 6 5 3 2 1 1 2 2
13 14 14 13 14 14 14 14 14 14 13 13 13 13 12 11 11 11 11 11 11 11 10 10 10 10 10 9 9 10 9 9 9 9 10 8 7 6 4 3 2 1 2
14 14 14 14 14 14 14 14 14 14 14 13 13 13 12 12 12 12 11 11 11 10 10 10 10 10 10 10 9 8 8 8 8 9 10 9 9 8 7 7 6 4 4
15 15 16 15 15 15 15 15 14 14 14 14 13 12 12 12 12 12 12 12 11 11 10 10 10 10 10 9 9 9 8 8 8 9 10 10 10 9 10 8 8 7 5
16 16 16 16 16 16 15 15 15 14 14 13 13 13 13 12 12 12 12 12 11 11 12 11 10 10 10 9 9 8 8 9 10 10 10 10 10 9 8 8 9 9 9
16 17 17 17 17 16 16 16 16 15 14 14 14 14 14 13 12 11 12 12 12 12 12 12 12 11 11 12 11 11 11 9 9 9 11 10 9 9 8 9 8 8 8
17 18 18 18 17 17 17 16 16 15 14 14 14 14 14 14 12 12 12 12 13 13 13 13 13 13 14 13 13 14 13 13 11 11 10 10 9 8 7 8 8 8 7
19 19 19 19 18 18 18 18 16 15 15 15 14 15 15 14 13 12 13 14 14 14 14 14 14 15 13 13 14 15 16 15 13 13 12 10 9 8 8 8 9 10 10
20 20 20 19 18 18 18 17 16 15 15 15 15 15 15 15 13 13 13 14 15 15 15 15 14 15 14 13 15 16 17 16 16 16 15 13 10 9 8 8 9 10 10
21 20 20 19 19 19 18 17 16 16 15 15 15 15 14 15 14 13 13 15 15 16 16 16 15 13 13 12 12 14 14 14 16 17 16 14 13 11 8 8 8 9 10
21 21 20 20 19 18 18 17 16 16 16 16 15 15 15 15 14 14 14 13 13 16 16 15 15 12 13 13 14 12 13 15 17 17 17 16 16 14 13 9 9 8 8
22 22 21 21 19 18 18 17 17 16 16 17 17 17 17 16 15 14 14 13 13 14 14 14 14 14 14 15 14 14 16 17 18 19 19 18 17 15 13 11 9 8 8
22 21 20 20 19 19 18 17 17 18 17 18 18 18 18 17 16 15 15 15 15 15 15 17 15 16 15 16 17 17 17 18 19 20 19 18 17 17 16 14 14 11 9
21 20 20 20 20 19 19 19 19 18 18 19 18 17 19 18 16 14 15 16 16 16 18 19 19 20 20 20 20 20 19 20 20 20 20 20 19 19 18 16 15 15 11
21 20 22 20 20 21 21 20 19 18 17 17 16 16 17 15 14 14 14 15 15 15 20 21 21 21 21 21 22 22 21 21 21 21 20 20 21 21 20 18 17 18 16
22 22 21 22 21 22 21 21 22 19 18 18 17 16 16 16 15 15 15 15 15 18 22 22 22 22 22 22 22 23 23 22 21 21 21 21 21 21 21 21 20 20 20
25 26 22 22 22 21 21 22 22 22 23 21 19 18 17 16 16 16 16 18 22 21 22 22 22 22 22 23 23 24 23 23 22 22 22 22 22 22 22 22 22 22 21
22 23 23 22 22 24 22 22 22 22 23 22 22 20 21 17 17 17 17 22 23 22 22 23 22 23 23 23 23 24 24 24 23 23 23 23 22 22 23 23 22 22 22
24 26 26 23 23 23 23 23 23 23 23 23 23 22 23 20 22 23 22 22 22 22 22 23 23 23 23 24 24 24 25 25 24 24 24 23 23 22 23 23 23 23 23
23 23 28 23 23 24 24 24 24 23 23 23 23 21 17 23 23 23 23 22 22 23 23 23 23 23 23 24 25 25 25 26 25 25 25 24 23 23 23 23 23 23 23
23 23 24 24 24 24 24 24 24 24 24 24 23 22 19 23 23 23 23 23 23 23 23 23 24 24 24 25 25 26 26 26 26 26 26 24 23 22 23 24 24 24 24
24 24 24 24 24 26 25 24 24 24 23 23 23 22 22 23 23 24 23 24 23 24 24 24 25 25 25 25 25 26 27 27 26 26 26 25 23 22 23 24 24 25 25
24 24 24 24 24 24 24 24 23 25 25 24 23 23 23 23 24 24 24 24 24 25 25 25 26 27 26 27 26 26 27 27 26 26 26 24 23 22 23 24 24 24 24
24 25 24 24 24 24 24 24 23 23 23 23 23 23 23 23 24 24 24 24 26 26 27 26 26 27 27 28 28 28 28 26 26 25 23 22 23 25 26 25 26 25 25
24 24 24 24 24 24 24 24 23 23 23 23 23 23 24 24 25 25 25 26 26 26 27 27 26 28 28 27 27 26 24 22 21 20 19 23 22 23 26 27 27 26 26